COSMOS 249 DEB, 3874

Orbit data source: Space-Track

COSMOS 249 DEB, 3874 is space debris in LEO originally from a launch on Sun, 20 Oct 1968 UTC launched from the Tyuratam Missile And Space Complex (TTMTR). Debris objects in space refer to the collection of defunct objects orbiting the Earth. Examples of debris include non-operational satellites, rocket bodies, and fragments generated from explosions, collisions, or faulty payload assembly.

Loading next visibility...
Identifier
3874, 1968-091BH
Orbit
LEO
Country
Flag of CISCIS
Related business
Manufacturer
Unknown
Mission
Spacecraft
Bus & Motor
Unknown
Mass
Unknown
Launch date (UTC)
1968-10-20 (58 years ago)
Launch vehicle
Unknown
Launch site
Tyuratam Missile And Space Complex (TTMTR)
Object type
Payload
Rocket body
Debris
Shape & HBR
Unknown shape, 0.1 m
Radar Cross Section
Medium (>0.1 m² and <1 m²)

Expand to show TLE details & history
Last TLE update: 17 hours ago

TLE from 17 hours ago
0 COSMOS 249 DEB
1 03874U 68091BH  26235.81135541  .00000539  00000-0  58096-3 0  9990
2 03874  62.2525 162.4791 0607178 207.2061 149.5895 13.21027022709606
Epoch: 2026-08-23T19:28Z
TLE epoch observation values (Epoch: 2026-08-23T19:28:21.107Z)
Latitude
0.00001°
Longitude
-101.71089°
Altitude
1,584.899 km
Speed
6.886 km/s
True Right ascension
10h 49m 54s
True Declination
0° 00' 00"
Sunlit
Object was in daylight at epoch
Visualization orbit readout
Latitude
Unknown
Longitude
Unknown
Altitude
Unknown
Speed
Unknown
Apparent Right ascension
Unknown
Apparent Declination
Unknown
Sunlit
N/A
Visualization observer readout
Local Sidereal Time
03:32:10
Azimuth
Unknown
Elevation
Unknown
Doppler factor
Unknown
Orbital elements
Apogee altitude
1,638.68 km
Perigee altitude
720.88 km
Semi-major axis
7,557.917 km
Eccentricity
0.06072
Inclination
62.2525°
RAAN
162.4791°
Arg. of periapsis
207.2061°
True anomaly
152.89279°
Mean anomaly
149.5895°
Eccentric anomaly
151.26215°
Mean motion
3.30324 °/min
Orbital period
108.98 mins
BSTAR
0.00058096
Loading maneuver chart data...
Computing Atmospheric mass density...
Loading historical data...
Loading historical data...
Loading historical data...
Loading historical data...
Loading historical data...
Loading historical data...
Loading historical data...

Documentation

Showing up to 5 results
|